This is the latest recevied weather packets stored in our database for station/object N3DXC. If no packets are shown the sender has not sent any weather packets the latest 1 day(s).
| Time | Temp. | Humidity | Pressure | Rain* | Wind** | Luminosity | Snow |
|---|---|---|---|---|---|---|---|
| 1777968891 | 16.67° C | 59% | 1008.9 hPa | 0 mm | 6.71 m/s, 236° | - | - |
| 1777968591 | 16.67° C | 59% | 1008.9 hPa | 0 mm | 4.92 m/s, 254° | - | - |
| 1777968291 | 16.67° C | 59% | 1008.8 hPa | 0 mm | 6.26 m/s, 243° | - | - |
| 1777967991 | 16.67° C | 58% | 1008.7 hPa | 0 mm | 6.71 m/s, 236° | - | - |
| 1777967691 | 16.67° C | 58% | 1008.6 hPa | 0 mm | 5.81 m/s, 237° | - | - |
| 1777967391 | 17.22° C | 57% | 1008.5 hPa | 0 mm | 12.52 m/s, 237° | - | - |
| 1777967091 | 17.22° C | 58% | 1008.3 hPa | 0 mm | 4.92 m/s, 251° | - | - |
| 1777966791 | 17.22° C | 58% | 1008.1 hPa | 0 mm | 4.47 m/s, 226° | - | - |
| 1777966491 | 17.22° C | 57% | 1008.1 hPa | 0 mm | 5.36 m/s, 217° | - | - |
| 1777966191 | 17.22° C | 57% | 1008.2 hPa | 0 mm | 7.15 m/s, 209° | - | - |
| 1777965891 | 16.67° C | 58% | 1008.2 hPa | 0 mm | 5.81 m/s, 229° | - | - |
| 1777965591 | 17.22° C | 58% | 1008.3 hPa | 0 mm | 4.02 m/s, 227° | - | - |
| 1777965291 | 16.67° C | 58% | 1008.2 hPa | 0 mm | 7.15 m/s, 239° | - | - |
| 1777964991 | 17.22° C | 58% | 1008.2 hPa | 0 mm | 4.92 m/s, 220° | - | - |
| 1777964691 | 16.67° C | 58% | 1008.3 hPa | 0 mm | 8.49 m/s, 230° | - | - |
| 1777964391 | 16.67° C | 60% | 1008.3 hPa | 0 mm | 4.92 m/s, 248° | - | - |
| 1777964091 | 16.67° C | 60% | 1008.3 hPa | 0 mm | 8.49 m/s, 234° | - | - |
| 1777963791 | 16.67° C | 60% | 1008.3 hPa | 0 mm | 4.92 m/s, 247° | - | - |
| 1777963491 | 16.67° C | 60% | 1008.3 hPa | 0 mm | 4.92 m/s, 220° | - | - |
| 1777963191 | 16.67° C | 60% | 1008.3 hPa | 0 mm | 5.81 m/s, 209° | - | - |
| 1777962891 | 16.67° C | 61% | 1008.3 hPa | 0 mm | 4.47 m/s, 240° | - | - |
* Rain latest hour (hover to see other rain measurements)
** Current wind speed in m/s (hover to see current wind gust speed)